Time,TemperatureF,DewpointF,PressureIn,WindDirection,WindDirectionDegrees,WindSpeedMPH,WindSpeedGustMPH,Humidity,HourlyPrecipIn,Conditions,Clouds,dailyrainin,SoftwareType,DateUTC
2013-02-19 00:00:00,30.5,24.2,29.85,NW,315,20.8,23.6,77,0.00,,BKN031,0.00,VWS V14.01,2013-02-19 06:00:00,
2013-02-19 00:01:00,30.5,22.3,29.85,NW,315,20.8,23.6,71,0.00,,OVC029,0.00,VWS V14.01,2013-02-19 06:01:00,
2013-02-19 00:05:00,30.7,22.5,29.85,NW,315,20.8,23.6,71,0.00,,BKN031,0.00,VWS V14.01,2013-02-19 06:05:00,
2013-02-19 00:06:00,30.5,21.6,29.85,NW,315,20.8,23.6,69,0.00,,OVC029,0.00,VWS V14.01,2013-02-19 06:06:00,
2013-02-19 00:10:00,30.5,21.6,29.85,NW,315,20.8,23.6,69,0.00,,BKN031,0.00,VWS V14.01,2013-02-19 06:10:00,
2013-02-19 00:11:00,30.4,21.1,29.85,NW,315,20.8,23.6,68,0.00,,OVC029,0.00,VWS V14.01,2013-02-19 06:11:00,
2013-02-19 00:15:00,30.4,21.8,29.85,NW,315,20.8,23.6,70,0.00,,BKN031,0.00,VWS V14.01,2013-02-19 06:15:00,
2013-02-19 00:16:00,30.2,22.3,29.85,WNW,292,25.9,29.3,72,0.00,,OVC029,0.00,VWS V14.01,2013-02-19 06:16:00,
2013-02-19 00:20:00,30.2,21.6,29.85,WNW,292,25.9,29.3,70,0.00,,BKN031,0.00,VWS V14.01,2013-02-19 06:20:00,
2013-02-19 00:21:00,30.2,22.9,29.85,NW,315,24.2,27.4,74,0.00,,OVC029,0.00,VWS V14.01,2013-02-19 06:21:00,
2013-02-19 00:25:00,30.2,22.6,29.85,NW,315,19.1,29.3,73,0.00,,BKN031,0.00,VWS V14.01,2013-02-19 06:25:00,
2013-02-19 00:26:00,30.0,22.1,29.85,NW,315,24.2,27.4,72,0.00,,OVC029,0.00,VWS V14.01,2013-02-19 06:26:00,
2013-02-19 00:30:00,30.2,22.6,29.85,NW,315,24.2,27.4,73,0.00,,BKN031,0.00,VWS V14.01,2013-02-19 06:30:00,
2013-02-19 00:31:00,30.0,21.4,29.88,WNW,292,19.6,22.1,70,0.00,,OVC029,0.00,VWS V14.01,2013-02-19 06:31:00,
2013-02-19 00:35:00,30.0,21.8,29.88,WNW,292,19.6,22.1,71,0.00,,BKN031,0.00,VWS V14.01,2013-02-19 06:35:00,
2013-02-19 00:37:00,29.8,20.6,29.88,WNW,292,19.6,22.1,68,0.00,,OVC029,0.00,VWS V14.01,2013-02-19 06:37:00,
2013-02-19 00:40:00,29.8,20.9,29.88,WNW,292,19.6,22.1,69,0.00,,BKN031,0.00,VWS V14.01,2013-02-19 06:40:00,
2013-02-19 00:42:00,29.8,20.6,29.88,WNW,292,19.6,22.1,68,0.00,,OVC029,0.00,VWS V14.01,2013-02-19 06:42:00,
2013-02-19 00:45:00,29.8,20.2,29.88,WNW,292,19.6,22.1,67,0.00,,BKN031,0.00,VWS V14.01,2013-02-19 06:45:00,
2013-02-19 00:47:00,29.8,20.9,29.88,WNW,292,19.6,22.1,69,0.00,,OVC029,0.00,VWS V14.01,2013-02-19 06:47:00,
2013-02-19 00:50:00,29.8,20.9,29.88,WNW,292,19.6,22.1,69,0.00,,BKN031,0.00,VWS V14.01,2013-02-19 06:50:00,
2013-02-19 00:52:00,29.8,22.6,29.88,NNW,338,20.0,22.6,74,0.00,,OVC029,0.00,VWS V14.01,2013-02-19 06:52:00,
2013-02-19 00:55:00,29.8,21.6,29.88,NW,315,16.6,22.1,71,0.00,,BKN031,0.00,VWS V14.01,2013-02-19 06:55:00,
2013-02-19 00:57:00,29.8,21.9,29.88,NW,315,23.4,26.5,72,0.00,,OVC029,0.00,VWS V14.01,2013-02-19 06:57:00,
2013-02-19 01:00:00,29.8,22.2,29.88,NW,315,23.4,26.5,73,0.00,,BKN031,0.00,VWS V14.01,2013-02-19 07:00:00,
2013-02-19 01:02:00,29.8,22.9,29.88,NW,315,14.0,15.9,75,0.00,,OVC025,0.00,VWS V14.01,2013-02-19 07:02:00,
2013-02-19 01:05:00,29.8,22.6,29.88,NW,315,14.0,22.1,74,0.00,,BKN031,0.00,VWS V14.01,2013-02-19 07:05:00,
2013-02-19 01:07:00,29.6,21.8,29.88,NW,315,14.0,15.9,72,0.00,,OVC025,0.00,VWS V14.01,2013-02-19 07:07:00,
2013-02-19 01:10:00,29.6,22.1,29.88,NW,315,14.0,15.9,73,0.00,,BKN031,0.00,VWS V14.01,2013-02-19 07:10:00,
2013-02-19 01:12:00,29.6,22.4,29.88,NW,315,14.0,15.9,74,0.00,,OVC025,0.00,VWS V14.01,2013-02-19 07:12:00,
2013-02-19 01:15:00,29.6,22.4,29.88,NW,315,14.0,15.9,74,0.00,,BKN031,0.00,VWS V14.01,2013-02-19 07:15:00,
2013-02-19 01:17:00,29.6,22.4,29.91,NW,315,12.3,20.7,74,0.00,,OVC025,0.00,VWS V14.01,2013-02-19 07:17:00,
2013-02-19 01:20:00,29.5,21.9,29.91,NW,315,14.0,15.9,73,0.00,,BKN031,0.00,VWS V14.01,2013-02-19 07:20:00,
2013-02-19 01:22:00,29.5,22.2,29.91,NW,315,20.0,22.6,74,0.00,,OVC025,0.00,VWS V14.01,2013-02-19 07:22:00,
2013-02-19 01:25:00,29.5,21.9,29.91,NW,315,12.3,14.0,73,0.00,,BKN031,0.00,VWS V14.01,2013-02-19 07:25:00,
2013-02-19 01:27:00,29.6,22.4,29.91,NW,315,20.0,22.6,74,0.00,,OVC025,0.00,VWS V14.01,2013-02-19 07:27:00,
2013-02-19 01:30:00,29.6,22.4,29.91,NW,315,20.0,22.6,74,0.00,,BKN031,0.00,VWS V14.01,2013-02-19 07:30:00,
2013-02-19 01:32:00,29.3,21.1,29.91,WNW,292,20.0,22.6,71,0.00,,OVC025,0.00,VWS V14.01,2013-02-19 07:32:00,
2013-02-19 01:35:00,29.5,21.6,29.91,WNW,292,19.6,22.1,72,0.00,,BKN031,0.00,VWS V14.01,2013-02-19 07:35:00,
2013-02-19 01:37:00,28.6,19.4,29.91,NW,315,20.0,22.6,68,0.00,,OVC025,0.00,VWS V14.01,2013-02-19 07:37:00,
2013-02-19 01:40:00,28.9,20.4,29.91,NW,315,20.0,22.6,70,0.00,,BKN031,0.00,VWS V14.01,2013-02-19 07:40:00,
2013-02-19 01:42:00,28.2,19.7,29.91,NW,315,14.5,16.4,70,0.00,,OVC025,0.00,VWS V14.01,2013-02-19 07:42:00,
2013-02-19 01:45:00,28.4,18.9,29.91,NW,315,20.0,22.6,67,0.00,,BKN031,0.00,VWS V14.01,2013-02-19 07:45:00,
2013-02-19 01:47:00,28.0,19.9,29.91,NW,315,19.1,22.1,71,0.00,,OVC025,0.00,VWS V14.01,2013-02-19 07:47:00,
2013-02-19 01:50:00,28.2,19.0,29.91,NW,315,19.6,22.1,68,0.00,,BKN031,0.00,VWS V14.01,2013-02-19 07:50:00,
2013-02-19 01:52:00,27.9,19.4,29.91,NW,315,19.6,22.1,70,0.00,,OVC025,0.00,VWS V14.01,2013-02-19 07:52:00,
2013-02-19 01:55:00,28.0,19.2,29.91,NW,315,19.6,24.1,69,0.00,,BKN031,0.00,VWS V14.01,2013-02-19 07:55:00,
2013-02-19 01:57:00,27.9,21.0,29.91,NW,315,16.2,23.1,75,0.00,,OVC025,0.00,VWS V14.01,2013-02-19 07:57:00,
2013-02-19 02:00:00,27.7,19.2,29.91,WNW,292,16.6,22.1,70,0.00,,BKN031,0.00,VWS V14.01,2013-02-19 08:00:00,
2013-02-19 02:02:00,27.7,18.8,29.91,NW,315,14.9,16.8,69,0.00,,BKN031,0.00,VWS V14.01,2013-02-19 08:02:00,
2013-02-19 02:05:00,27.7,20.8,29.91,WNW,292,16.2,23.6,75,0.00,,BKN031,0.00,VWS V14.01,2013-02-19 08:05:00,
2013-02-19 02:07:00,27.7,18.5,29.91,WNW,292,19.1,27.9,68,0.00,,BKN031,0.00,VWS V14.01,2013-02-19 08:07:00,
2013-02-19 02:10:00,27.7,19.2,29.91,NW,315,14.9,16.8,70,0.00,,BKN031,0.00,VWS V14.01,2013-02-19 08:10:00,
2013-02-19 02:13:00,27.5,16.9,29.91,NW,315,16.6,21.6,64,0.00,,BKN031,0.00,VWS V14.01,2013-02-19 08:13:00,
2013-02-19 02:15:00,27.7,17.5,29.91,WNW,292,19.1,21.6,65,0.00,,BKN031,0.00,VWS V14.01,2013-02-19 08:15:00,
2013-02-19 02:18:00,27.5,17.6,29.91,NW,315,18.7,21.2,66,0.00,,BKN031,0.00,VWS V14.01,2013-02-19 08:18:00,
2013-02-19 02:20:00,27.5,16.9,29.91,NW,315,16.2,18.3,64,0.00,,BKN031,0.00,VWS V14.01,2013-02-19 08:20:00,
2013-02-19 02:23:00,27.5,17.6,29.91,NW,315,20.8,23.6,66,0.00,,BKN031,0.00,VWS V14.01,2013-02-19 08:23:00,
2013-02-19 02:25:00,27.5,17.3,29.91,NW,315,23.8,26.9,65,0.00,,BKN031,0.00,VWS V14.01,2013-02-19 08:25:00,
2013-02-19 02:28:00,27.5,18.3,29.91,WNW,292,20.8,23.6,68,0.00,,BKN031,0.00,VWS V14.01,2013-02-19 08:28:00,
2013-02-19 02:30:00,27.5,17.3,29.91,NNW,338,13.6,15.4,65,0.00,,BKN031,0.00,VWS V14.01,2013-02-19 08:30:00,
2013-02-19 02:33:00,27.5,17.3,29.91,NW,315,17.9,20.2,65,0.00,,BKN031,0.00,VWS V14.01,2013-02-19 08:33:00,
2013-02-19 02:35:00,27.5,19.0,29.91,NNW,338,15.3,17.3,70,0.00,,BKN031,0.00,VWS V14.01,2013-02-19 08:35:00,
2013-02-19 02:38:00,27.5,18.7,29.91,NW,315,13.2,16.8,69,0.00,,BKN031,0.00,VWS V14.01,2013-02-19 08:38:00,
2013-02-19 02:40:00,27.5,17.6,29.91,WNW,292,16.2,23.1,66,0.00,,BKN031,0.00,VWS V14.01,2013-02-19 08:40:00,
2013-02-19 02:43:00,27.7,19.2,29.91,WNW,292,18.7,21.2,70,0.00,,BKN031,0.00,VWS V14.01,2013-02-19 08:43:00,
2013-02-19 02:45:00,27.5,18.3,29.91,NW,315,15.3,20.7,68,0.00,,BKN031,0.00,VWS V14.01,2013-02-19 08:45:00,
2013-02-19 02:48:00,27.7,18.5,29.91,WNW,292,11.1,18.8,68,0.00,,BKN031,0.00,VWS V14.01,2013-02-19 08:48:00,
2013-02-19 02:50:00,27.7,19.2,29.91,NNW,338,11.5,21.2,70,0.00,,BKN031,0.00,VWS V14.01,2013-02-19 08:50:00,
2013-02-19 02:53:00,27.7,18.8,29.91,NW,315,20.8,23.6,69,0.00,,BKN031,0.00,VWS V14.01,2013-02-19 08:53:00,
2013-02-19 02:55:00,27.7,18.5,29.91,WNW,292,14.9,17.3,68,0.00,,BKN031,0.00,VWS V14.01,2013-02-19 08:55:00,
2013-02-19 02:58:00,27.7,18.5,29.91,NW,315,14.9,16.8,68,0.00,,BKN031,0.00,VWS V14.01,2013-02-19 08:58:00,
2013-02-19 03:00:00,27.7,19.8,29.91,NW,315,14.9,17.3,72,0.00,,BKN031,0.00,VWS V14.01,2013-02-19 09:00:00,
2013-02-19 03:03:00,27.7,18.8,29.91,NW,315,19.1,26.0,69,0.00,,OVC034,0.00,VWS V14.01,2013-02-19 09:03:00,
2013-02-19 03:05:00,27.7,18.5,29.91,NW,315,14.9,16.8,68,0.00,,BKN031,0.00,VWS V14.01,2013-02-19 09:05:00,
2013-02-19 03:08:00,27.3,16.8,29.91,NW,315,23.8,26.9,64,0.00,,OVC034,0.00,VWS V14.01,2013-02-19 09:08:00,
2013-02-19 03:10:00,27.5,18.0,29.91,WNW,292,15.3,22.1,67,0.00,,BKN031,0.00,VWS V14.01,2013-02-19 09:10:00,
2013-02-19 03:13:00,27.1,16.2,29.91,NW,315,16.6,18.8,63,0.00,,OVC034,0.00,VWS V14.01,2013-02-19 09:13:00,
2013-02-19 03:15:00,27.3,17.1,29.91,NW,315,20.4,27.9,65,0.00,,BKN031,0.00,VWS V14.01,2013-02-19 09:15:00,
2013-02-19 03:18:00,27.0,16.4,29.94,West,270,15.3,17.3,64,0.00,,OVC034,0.00,VWS V14.01,2013-02-19 09:18:00,
2013-02-19 03:20:00,27.1,16.6,29.94,WNW,292,15.3,18.8,64,0.00,,BKN031,0.00,VWS V14.01,2013-02-19 09:20:00,
2013-02-19 03:23:00,26.8,16.2,29.94,WNW,292,14.9,18.8,64,0.00,,OVC034,0.00,VWS V14.01,2013-02-19 09:23:00,
2013-02-19 03:25:00,27.0,16.8,29.94,WNW,292,16.6,18.8,65,0.00,,BKN031,0.00,VWS V14.01,2013-02-19 09:25:00,
2013-02-19 03:28:00,26.6,15.7,29.94,West,270,15.3,17.3,63,0.00,,OVC034,0.00,VWS V14.01,2013-02-19 09:28:00,
2013-02-19 03:30:00,26.8,16.2,29.94,WNW,292,16.2,18.3,64,0.00,,BKN031,0.00,VWS V14.01,2013-02-19 09:30:00,
2013-02-19 03:34:00,26.2,15.4,29.94,West,270,23.4,27.4,63,0.00,,OVC034,0.00,VWS V14.01,2013-02-19 09:34:00,
2013-02-19 03:35:00,26.4,15.2,29.94,West,270,15.3,17.3,62,0.00,,BKN031,0.00,VWS V14.01,2013-02-19 09:35:00,
2013-02-19 03:39:00,25.7,15.2,29.94,West,270,23.4,26.5,64,0.00,,OVC034,0.00,VWS V14.01,2013-02-19 09:39:00,
2013-02-19 03:40:00,26.2,15.4,29.94,West,270,23.4,26.5,63,0.00,,BKN031,0.00,VWS V14.01,2013-02-19 09:40:00,
2013-02-19 03:44:00,25.3,13.8,29.94,NW,315,33.6,38.0,61,0.00,,OVC034,0.00,VWS V14.01,2013-02-19 09:44:00,
2013-02-19 03:45:00,25.7,14.9,29.94,West,270,23.4,26.5,63,0.00,,BKN031,0.00,VWS V14.01,2013-02-19 09:45:00,
2013-02-19 03:49:00,25.3,14.9,29.94,NW,315,33.6,38.0,64,0.00,,OVC034,0.00,VWS V14.01,2013-02-19 09:49:00,
2013-02-19 03:50:00,25.3,14.5,29.94,NW,315,33.6,38.0,63,0.00,,BKN031,0.00,VWS V14.01,2013-02-19 09:50:00,
2013-02-19 03:54:00,25.1,15.1,29.94,NW,315,33.6,38.0,65,0.00,,OVC034,0.00,VWS V14.01,2013-02-19 09:54:00,
2013-02-19 03:55:00,25.3,14.5,29.94,NW,315,33.6,38.0,63,0.00,,BKN031,0.00,VWS V14.01,2013-02-19 09:55:00,
2013-02-19 03:59:00,25.0,15.2,29.94,NW,315,33.6,38.0,66,0.00,,OVC034,0.00,VWS V14.01,2013-02-19 09:59:00,
2013-02-19 04:00:00,25.1,15.4,29.94,NW,315,33.6,38.0,66,0.00,,BKN031,0.00,VWS V14.01,2013-02-19 10:00:00,
2013-02-19 04:04:00,25.0,15.2,29.94,NW,315,33.6,38.0,66,0.00,,BKN031,0.00,VWS V14.01,2013-02-19 10:04:00,
2013-02-19 04:05:00,25.0,15.6,29.94,NW,315,33.6,38.0,67,0.00,,BKN031,0.00,VWS V14.01,2013-02-19 10:05:00,
2013-02-19 04:09:00,25.0,16.6,29.94,NW,315,18.3,20.7,70,0.00,,BKN031,0.00,VWS V14.01,2013-02-19 10:09:00,
2013-02-19 04:10:00,25.0,15.2,29.94,NW,315,33.6,38.0,66,0.00,,BKN031,0.00,VWS V14.01,2013-02-19 10:10:00,
2013-02-19 04:14:00,24.8,15.4,29.94,NW,315,18.3,20.7,67,0.00,,BKN031,0.00,VWS V14.01,2013-02-19 10:14:00,
2013-02-19 04:15:00,24.8,16.1,29.94,NW,315,18.3,20.7,69,0.00,,BKN031,0.00,VWS V14.01,2013-02-19 10:15:00,
2013-02-19 04:19:00,24.8,15.7,29.91,NW,315,18.3,20.7,68,0.00,,BKN031,0.00,VWS V14.01,2013-02-19 10:19:00,
2013-02-19 04:20:00,24.8,16.1,29.91,NW,315,18.3,20.7,69,0.00,,BKN031,0.00,VWS V14.01,2013-02-19 10:20:00,
2013-02-19 04:24:00,24.8,16.1,29.91,NW,315,25.1,28.4,69,0.00,,BKN031,0.00,VWS V14.01,2013-02-19 10:24:00,
2013-02-19 04:25:00,24.8,15.4,29.91,NW,315,18.3,20.7,67,0.00,,BKN031,0.00,VWS V14.01,2013-02-19 10:25:00,
2013-02-19 04:29:00,25.0,16.9,29.91,NW,315,18.7,21.2,71,0.00,,BKN031,0.00,VWS V14.01,2013-02-19 10:29:00,
2013-02-19 04:30:00,24.8,16.1,29.91,WNW,292,20.0,28.4,69,0.00,,BKN031,0.00,VWS V14.01,2013-02-19 10:30:00,
2013-02-19 04:34:00,25.0,15.9,29.91,NW,315,19.1,21.6,68,0.00,,BKN031,0.00,VWS V14.01,2013-02-19 10:34:00,
2013-02-19 04:35:00,25.0,16.9,29.91,NW,315,19.1,21.6,71,0.00,,BKN031,0.00,VWS V14.01,2013-02-19 10:35:00,
2013-02-19 04:39:00,25.1,17.1,29.91,NNW,338,17.0,19.2,71,0.00,,BKN031,0.00,VWS V14.01,2013-02-19 10:39:00,
2013-02-19 04:40:00,25.0,15.9,29.91,NW,315,19.1,21.6,68,0.00,,BKN031,0.00,VWS V14.01,2013-02-19 10:40:00,
2013-02-19 04:44:00,25.1,16.1,29.91,NNW,338,17.0,19.2,68,0.00,,BKN031,0.00,VWS V14.01,2013-02-19 10:44:00,
2013-02-19 04:45:00,25.1,16.8,29.91,NNW,338,17.0,19.2,70,0.00,,BKN031,0.00,VWS V14.01,2013-02-19 10:45:00,
2013-02-19 04:57:00,25.1,16.4,29.91,WNW,292,15.3,21.2,69,0.00,,BKN031,0.00,VWS V14.01,2013-02-19 10:57:00,
2013-02-19 05:02:00,24.8,14.7,29.88,WNW,292,19.1,21.6,65,0.00,,OVC033,0.00,VWS V14.01,2013-02-19 11:02:00,
2013-02-19 05:07:00,24.6,14.2,29.88,WNW,292,19.1,21.6,64,0.00,,OVC033,0.00,VWS V14.01,2013-02-19 11:07:00,
2013-02-19 05:13:00,24.2,13.8,29.88,WNW,292,19.1,21.6,64,0.00,,OVC033,0.00,VWS V14.01,2013-02-19 11:13:00,
2013-02-19 05:18:00,24.1,13.7,29.91,WNW,292,23.0,26.0,64,0.00,,OVC033,0.00,VWS V14.01,2013-02-19 11:18:00,
2013-02-19 05:23:00,23.9,13.1,29.91,NW,315,25.1,28.4,63,0.00,,OVC033,0.00,VWS V14.01,2013-02-19 11:23:00,
2013-02-19 05:28:00,23.7,13.0,29.91,NW,315,25.1,28.4,63,0.00,,OVC033,0.00,VWS V14.01,2013-02-19 11:28:00,
2013-02-19 05:33:00,23.5,12.8,29.91,NW,315,25.1,28.4,63,0.00,,OVC033,0.00,VWS V14.01,2013-02-19 11:33:00,
2013-02-19 05:38:00,23.7,13.7,29.91,NW,315,19.1,21.6,65,0.00,,OVC033,0.00,VWS V14.01,2013-02-19 11:38:00,
2013-02-19 05:43:00,23.7,14.0,29.91,WNW,292,20.4,23.1,66,0.00,,OVC033,0.00,VWS V14.01,2013-02-19 11:43:00,
2013-02-19 05:48:00,23.7,13.7,29.91,WNW,292,24.7,27.9,65,0.00,,OVC033,0.00,VWS V14.01,2013-02-19 11:48:00,
2013-02-19 05:53:00,23.7,14.7,29.91,WNW,292,24.7,27.9,68,0.00,,OVC033,0.00,VWS V14.01,2013-02-19 11:53:00,
2013-02-19 05:58:00,23.7,15.0,29.91,NW,315,18.3,21.6,69,0.00,,OVC033,0.00,VWS V14.01,2013-02-19 11:58:00,
2013-02-19 06:03:00,23.7,15.0,29.91,NW,315,18.3,20.7,69,0.00,,OVC029,0.00,VWS V14.01,2013-02-19 12:03:00,
2013-02-19 06:08:00,23.7,14.4,29.91,NW,315,18.3,20.7,67,0.00,,OVC029,0.00,VWS V14.01,2013-02-19 12:08:00,
2013-02-19 06:13:00,23.7,14.0,29.91,NW,315,18.3,20.7,66,0.00,,OVC029,0.00,VWS V14.01,2013-02-19 12:13:00,
2013-02-19 06:18:00,23.7,14.0,29.91,WNW,292,23.8,26.9,66,0.00,,OVC029,0.00,VWS V14.01,2013-02-19 12:18:00,
2013-02-19 06:23:00,23.7,15.0,29.91,WNW,292,16.2,21.6,69,0.00,,OVC029,0.00,VWS V14.01,2013-02-19 12:23:00,
2013-02-19 06:28:00,23.5,15.5,29.91,WNW,292,17.9,20.2,71,0.00,,OVC029,0.00,VWS V14.01,2013-02-19 12:28:00,
2013-02-19 06:34:00,23.5,14.2,29.91,WNW,292,34.0,38.5,67,0.00,,OVC029,0.00,VWS V14.01,2013-02-19 12:34:00,
2013-02-19 06:39:00,23.5,13.5,29.91,WNW,292,20.0,22.6,65,0.00,,OVC029,0.00,VWS V14.01,2013-02-19 12:39:00,
2013-02-19 06:44:00,23.5,13.9,29.91,NW,315,34.4,39.0,66,0.00,,OVC029,0.00,VWS V14.01,2013-02-19 12:44:00,
2013-02-19 06:49:00,23.4,13.7,29.91,NW,315,34.4,39.0,66,0.00,,OVC029,0.00,VWS V14.01,2013-02-19 12:49:00,
2013-02-19 06:54:00,23.4,13.7,29.91,NW,315,34.4,39.0,66,0.00,,OVC029,0.00,VWS V14.01,2013-02-19 12:54:00,
2013-02-19 06:59:00,23.4,13.7,29.91,NW,315,26.4,29.8,66,0.00,,OVC029,0.00,VWS V14.01,2013-02-19 12:59:00,
2013-02-19 07:04:00,23.4,13.7,29.91,NW,315,26.4,29.8,66,0.00,,OVC029,0.00,VWS V14.01,2013-02-19 13:04:00,
2013-02-19 07:09:00,23.4,14.0,29.91,WNW,292,19.1,21.6,67,0.00,,OVC029,0.00,VWS V14.01,2013-02-19 13:09:00,
2013-02-19 07:14:00,23.4,13.7,29.91,WSW,248,29.3,33.2,66,0.00,,OVC029,0.00,VWS V14.01,2013-02-19 13:14:00,
2013-02-19 07:19:00,23.5,14.5,29.88,NW,315,32.7,37.0,68,0.00,,OVC029,0.00,VWS V14.01,2013-02-19 13:19:00,
2013-02-19 07:24:00,23.5,14.9,29.88,WNW,292,20.0,22.6,69,0.00,,OVC029,0.00,VWS V14.01,2013-02-19 13:24:00,
2013-02-19 07:29:00,23.7,15.7,29.88,WNW,292,18.7,21.2,71,0.00,,OVC029,0.00,VWS V14.01,2013-02-19 13:29:00,
2013-02-19 07:34:00,23.7,16.0,29.94,WNW,292,15.3,17.3,72,0.00,,OVC029,0.00,VWS V14.01,2013-02-19 13:34:00,
2013-02-19 07:39:00,23.5,15.2,29.94,West,270,14.0,15.9,70,0.00,,OVC029,0.00,VWS V14.01,2013-02-19 13:39:00,
2013-02-19 07:44:00,23.2,14.2,29.94,NW,315,32.7,37.0,68,0.00,,OVC029,0.00,VWS V14.01,2013-02-19 13:44:00,
2013-02-19 07:49:00,22.6,12.6,29.97,WNW,292,21.3,24.1,65,0.00,,OVC029,0.00,VWS V14.01,2013-02-19 13:49:00,
2013-02-19 07:54:00,22.3,12.3,29.97,NNW,338,20.8,23.6,65,0.00,,OVC029,0.00,VWS V14.01,2013-02-19 13:54:00,
2013-02-19 07:59:00,22.3,12.3,29.97,WNW,292,25.1,28.4,65,0.00,,OVC029,0.00,VWS V14.01,2013-02-19 13:59:00,
2013-02-19 08:04:00,22.5,13.2,29.97,NW,315,24.7,28.4,67,0.00,,OVC027,0.00,VWS V14.01,2013-02-19 14:04:00,
2013-02-19 08:09:00,22.3,12.3,29.97,NW,315,24.7,27.9,65,0.00,,OVC027,0.00,VWS V14.01,2013-02-19 14:09:00,
2013-02-19 08:14:00,22.3,12.6,29.97,WNW,292,28.9,32.7,66,0.00,,OVC027,0.00,VWS V14.01,2013-02-19 14:14:00,
2013-02-19 08:19:00,22.6,13.7,29.97,NW,315,33.2,37.5,68,0.00,,OVC027,0.00,VWS V14.01,2013-02-19 14:19:00,
2013-02-19 08:24:00,22.6,13.3,29.97,NW,315,33.2,37.5,67,0.00,,OVC027,0.00,VWS V14.01,2013-02-19 14:24:00,
2013-02-19 08:29:00,22.6,13.7,29.97,NW,315,29.3,33.2,68,0.00,,OVC027,0.00,VWS V14.01,2013-02-19 14:29:00,
2013-02-19 08:35:00,22.6,13.0,29.94,NW,315,20.0,22.6,66,0.00,,OVC027,0.00,VWS V14.01,2013-02-19 14:35:00,
2013-02-19 08:40:00,22.8,14.5,29.94,NW,315,25.1,28.4,70,0.00,,OVC027,0.00,VWS V14.01,2013-02-19 14:40:00,
2013-02-19 08:45:00,22.6,13.3,29.97,WNW,292,24.7,27.9,67,0.00,,OVC027,0.00,VWS V14.01,2013-02-19 14:45:00,
2013-02-19 08:50:00,22.6,13.0,29.97,WNW,292,24.7,27.9,66,0.00,,OVC027,0.00,VWS V14.01,2013-02-19 14:50:00,
2013-02-19 08:55:00,22.5,12.8,29.97,NW,315,29.3,33.2,66,0.00,,OVC027,0.00,VWS V14.01,2013-02-19 14:55:00,
2013-02-19 09:00:00,22.6,13.0,29.97,NW,315,25.1,28.4,66,0.00,,OVC029,0.00,VWS V14.01,2013-02-19 15:00:00,
2013-02-19 09:05:00,22.8,12.8,29.97,NNW,338,27.6,32.7,65,0.00,,OVC029,0.00,VWS V14.01,2013-02-19 15:05:00,
2013-02-19 09:10:00,22.6,11.9,29.97,NW,315,20.8,26.5,63,0.00,,OVC029,0.00,VWS V14.01,2013-02-19 15:10:00,
2013-02-19 09:15:00,22.8,12.1,30.00,WNW,292,19.1,28.4,63,0.00,,OVC029,0.00,VWS V14.01,2013-02-19 15:15:00,
2013-02-19 09:20:00,22.8,12.1,30.00,NW,315,21.3,28.4,63,0.00,,OVC029,0.00,VWS V14.01,2013-02-19 15:20:00,
2013-02-19 09:25:00,23.0,13.0,30.00,WNW,292,20.0,33.7,65,0.00,,OVC029,0.00,VWS V14.01,2013-02-19 15:25:00,
2013-02-19 09:30:00,23.0,12.6,30.00,WNW,292,30.2,35.1,64,0.00,,OVC029,0.00,VWS V14.01,2013-02-19 15:30:00,
2013-02-19 09:35:00,23.4,13.3,30.00,NW,315,28.1,31.8,65,0.00,,OVC029,0.00,VWS V14.01,2013-02-19 15:35:00,
2013-02-19 09:40:00,23.4,13.0,30.00,WNW,292,25.1,28.4,64,0.00,,OVC029,0.00,VWS V14.01,2013-02-19 15:40:00,
2013-02-19 09:45:00,23.2,12.5,30.00,WNW,292,27.6,31.3,63,0.00,,OVC029,0.00,VWS V14.01,2013-02-19 15:45:00,
2013-02-19 09:51:00,22.6,11.9,30.00,WNW,292,35.3,39.9,63,0.00,,OVC029,0.00,VWS V14.01,2013-02-19 15:51:00,
2013-02-19 09:56:00,21.9,10.2,30.00,NW,315,28.9,38.0,60,0.00,,OVC029,0.00,VWS V14.01,2013-02-19 15:56:00,
2013-02-19 10:01:00,21.9,11.6,30.00,NW,315,25.1,28.9,64,0.00,,,0.00,VWS V14.01,2013-02-19 16:01:00,
2013-02-19 10:06:00,21.7,11.1,30.00,WNW,292,25.1,33.7,63,0.00,,,0.00,VWS V14.01,2013-02-19 16:06:00,
2013-02-19 10:11:00,21.7,10.7,30.00,NW,315,28.1,31.8,62,0.00,,,0.00,VWS V14.01,2013-02-19 16:11:00,
2013-02-19 10:16:00,21.9,11.3,30.00,NW,315,27.2,42.8,63,0.00,,,0.00,VWS V14.01,2013-02-19 16:16:00,
2013-02-19 10:21:00,22.5,12.8,30.00,WNW,292,28.9,35.1,66,0.00,,,0.00,VWS V14.01,2013-02-19 16:21:00,
2013-02-19 10:26:00,22.1,10.7,30.00,NNW,338,24.7,36.1,61,0.00,,,0.00,VWS V14.01,2013-02-19 16:26:00,
2013-02-19 10:31:00,22.6,11.6,30.03,NW,315,32.3,36.6,62,0.00,,,0.00,VWS V14.01,2013-02-19 16:31:00,
2013-02-19 10:36:00,22.5,11.4,30.03,NW,315,28.9,37.5,62,0.00,,,0.00,VWS V14.01,2013-02-19 16:36:00,
2013-02-19 10:41:00,22.5,11.8,30.03,NW,315,25.9,37.0,63,0.00,,,0.00,VWS V14.01,2013-02-19 16:41:00,
2013-02-19 10:46:00,22.5,11.4,30.03,NW,315,23.8,33.2,62,0.00,,,0.00,VWS V14.01,2013-02-19 16:46:00,
2013-02-19 10:51:00,22.6,11.2,30.03,NNW,338,25.9,37.0,61,0.00,,,0.00,VWS V14.01,2013-02-19 16:51:00,
2013-02-19 10:56:00,23.2,12.5,30.03,WNW,292,28.1,32.7,63,0.00,,,0.00,VWS V14.01,2013-02-19 16:56:00,
2013-02-19 11:02:00,23.2,12.5,30.06,WNW,292,28.1,37.0,63,0.00,,,0.00,VWS V14.01,2013-02-19 17:02:00,
2013-02-19 11:07:00,23.5,12.4,30.06,WNW,292,33.2,37.5,62,0.00,,,0.00,VWS V14.01,2013-02-19 17:07:00,
2013-02-19 11:12:00,23.2,11.4,30.06,NW,315,32.7,42.3,60,0.00,,,0.00,VWS V14.01,2013-02-19 17:12:00,
2013-02-19 11:17:00,23.4,11.5,30.03,NW,315,25.1,34.2,60,0.00,,,0.00,VWS V14.01,2013-02-19 17:17:00,
2013-02-19 11:22:00,23.5,12.1,30.03,WNW,292,28.1,38.0,61,0.00,,,0.00,VWS V14.01,2013-02-19 17:22:00,
2013-02-19 11:27:00,23.7,12.2,30.03,WNW,292,25.1,33.7,61,0.00,,,0.00,VWS V14.01,2013-02-19 17:27:00,
2013-02-19 11:32:00,23.4,11.1,30.00,NW,315,30.6,41.9,59,0.00,,,0.00,VWS V14.01,2013-02-19 17:32:00,
2013-02-19 11:37:00,23.4,11.1,30.00,NW,315,24.2,32.7,59,0.00,,,0.00,VWS V14.01,2013-02-19 17:37:00,
2013-02-19 11:42:00,24.1,12.9,30.00,WNW,292,31.9,36.1,62,0.00,,,0.00,VWS V14.01,2013-02-19 17:42:00,
2013-02-19 11:47:00,24.2,12.0,30.03,WNW,292,23.8,38.5,59,0.00,,,0.00,VWS V14.01,2013-02-19 17:47:00,
2013-02-19 11:52:00,24.1,11.8,30.03,NW,315,19.1,22.6,59,0.00,,,0.00,VWS V14.01,2013-02-19 17:52:00,
2013-02-19 11:57:00,24.6,13.5,30.03,NW,315,25.1,32.7,62,0.00,,,0.00,VWS V14.01,2013-02-19 17:57:00,
2013-02-19 12:02:00,24.2,12.8,30.03,WNW,292,24.2,35.6,61,0.00,,BKN029,0.00,VWS V14.01,2013-02-19 18:02:00,
2013-02-19 12:07:00,24.6,12.7,30.03,WNW,292,19.6,33.2,60,0.00,,BKN029,0.00,VWS V14.01,2013-02-19 18:07:00,
2013-02-19 12:12:00,24.8,13.6,30.03,WNW,292,37.8,42.8,62,0.00,,BKN029,0.00,VWS V14.01,2013-02-19 18:12:00,
2013-02-19 12:17:00,24.6,12.7,30.03,NW,315,24.7,33.2,60,0.00,,BKN029,0.00,VWS V14.01,2013-02-19 18:17:00,
2013-02-19 12:22:00,24.8,13.3,30.03,NW,315,24.7,28.4,61,0.00,,BKN029,0.00,VWS V14.01,2013-02-19 18:22:00,
2013-02-19 12:28:00,24.6,12.0,30.03,WNW,292,25.9,30.8,58,0.00,,BKN029,0.00,VWS V14.01,2013-02-19 18:28:00,
2013-02-19 12:33:00,24.6,13.1,30.03,NNW,338,25.9,33.7,61,0.00,,BKN029,0.00,VWS V14.01,2013-02-19 18:33:00,
2013-02-19 12:38:00,24.4,11.4,30.03,WNW,292,16.2,32.7,57,0.00,,BKN029,0.00,VWS V14.01,2013-02-19 18:38:00,
2013-02-19 12:43:00,25.0,13.4,30.03,NW,315,20.4,29.8,61,0.00,,BKN029,0.00,VWS V14.01,2013-02-19 18:43:00,
2013-02-19 12:48:00,24.8,11.7,30.03,NW,315,31.5,37.0,57,0.00,,BKN029,0.00,VWS V14.01,2013-02-19 18:48:00,
2013-02-19 12:53:00,25.0,12.7,30.03,NW,315,23.0,26.9,59,0.00,,BKN029,0.00,VWS V14.01,2013-02-19 18:53:00,
2013-02-19 12:58:00,25.3,14.1,30.03,NNW,338,25.1,30.8,62,0.00,,BKN029,0.00,VWS V14.01,2013-02-19 18:58:00,
2013-02-19 13:03:00,25.5,12.8,30.03,WNW,292,23.8,27.4,58,0.00,,BKN029,0.00,VWS V14.01,2013-02-19 19:03:00,
2013-02-19 13:08:00,25.9,14.7,30.03,WNW,292,20.8,27.4,62,0.00,,BKN029,0.00,VWS V14.01,2013-02-19 19:08:00,
2013-02-19 13:13:00,25.9,13.9,30.03,West,270,23.8,26.9,60,0.00,,BKN029,0.00,VWS V14.01,2013-02-19 19:13:00,
2013-02-19 13:18:00,26.2,14.2,30.03,WNW,292,17.0,23.1,60,0.00,,BKN029,0.00,VWS V14.01,2013-02-19 19:18:00,
2013-02-19 13:23:00,25.9,13.9,30.03,WNW,292,28.1,31.8,60,0.00,,BKN029,0.00,VWS V14.01,2013-02-19 19:23:00,
2013-02-19 13:28:00,25.5,13.6,30.03,WNW,292,16.2,21.6,60,0.00,,BKN029,0.00,VWS V14.01,2013-02-19 19:28:00,
2013-02-19 13:34:00,25.9,13.1,30.03,WNW,292,29.3,42.3,58,0.00,,BKN029,0.00,VWS V14.01,2013-02-19 19:34:00,
2013-02-19 13:39:00,26.4,13.2,30.03,WNW,292,23.8,28.4,57,0.00,,BKN029,0.00,VWS V14.01,2013-02-19 19:39:00,
2013-02-19 13:44:00,26.0,12.5,30.03,NW,315,24.2,34.6,56,0.00,,BKN029,0.00,VWS V14.01,2013-02-19 19:44:00,
2013-02-19 13:49:00,26.8,15.1,30.03,NW,315,12.3,18.8,61,0.00,,BKN029,0.00,VWS V14.01,2013-02-19 19:49:00,
2013-02-19 13:54:00,26.6,14.2,30.03,WNW,292,20.8,29.8,59,0.00,,BKN029,0.00,VWS V14.01,2013-02-19 19:54:00,
2013-02-19 13:59:00,26.4,14.8,30.03,WNW,292,15.3,27.4,61,0.00,,BKN029,0.00,VWS V14.01,2013-02-19 19:59:00,
2013-02-19 14:04:00,26.4,14.0,30.03,WNW,292,15.3,21.2,59,0.00,,OVC029,0.00,VWS V14.01,2013-02-19 20:04:00,
2013-02-19 14:09:00,26.8,14.8,30.03,WNW,292,25.1,28.4,60,0.00,,OVC029,0.00,VWS V14.01,2013-02-19 20:09:00,
2013-02-19 14:14:00,26.6,13.4,30.03,WNW,292,7.7,18.3,57,0.00,,OVC029,0.00,VWS V14.01,2013-02-19 20:14:00,
2013-02-19 14:19:00,26.4,13.6,30.03,WNW,292,23.4,33.2,58,0.00,,OVC029,0.00,VWS V14.01,2013-02-19 20:19:00,
2013-02-19 14:24:00,26.4,14.0,30.03,WNW,292,24.7,31.8,59,0.00,,OVC029,0.00,VWS V14.01,2013-02-19 20:24:00,
2013-02-19 14:29:00,26.0,13.3,30.03,WNW,292,20.8,27.4,58,0.00,,OVC029,0.00,VWS V14.01,2013-02-19 20:29:00,
2013-02-19 14:34:00,25.9,12.8,30.03,NW,315,31.9,37.5,57,0.00,,OVC029,0.00,VWS V14.01,2013-02-19 20:34:00,
2013-02-19 14:39:00,26.0,12.9,30.03,NW,315,25.5,32.7,57,0.00,,OVC029,0.00,VWS V14.01,2013-02-19 20:39:00,
2013-02-19 14:44:00,26.2,13.1,30.03,NW,315,25.1,28.4,57,0.00,,OVC029,0.00,VWS V14.01,2013-02-19 20:44:00,
2013-02-19 14:49:00,26.6,14.2,30.06,NW,315,18.3,31.3,59,0.00,,OVC029,0.00,VWS V14.01,2013-02-19 20:49:00,
2013-02-19 14:54:00,26.2,13.1,30.06,NW,315,16.6,21.6,57,0.00,,OVC029,0.00,VWS V14.01,2013-02-19 20:54:00,
2013-02-19 14:59:00,26.6,14.6,30.06,NNW,338,20.0,26.5,60,0.00,,OVC029,0.00,VWS V14.01,2013-02-19 20:59:00,
2013-02-19 15:04:00,26.2,12.7,30.09,WNW,292,25.1,34.2,56,0.00,,OVC029,0.00,VWS V14.01,2013-02-19 21:04:00,
2013-02-19 15:09:00,26.2,12.3,30.09,WNW,292,23.4,33.7,55,0.00,,OVC029,0.00,VWS V14.01,2013-02-19 21:09:00,
2013-02-19 15:14:00,26.2,12.7,30.09,NW,315,28.9,34.2,56,0.00,,OVC029,0.00,VWS V14.01,2013-02-19 21:14:00,
2013-02-19 15:20:00,26.2,12.3,30.09,NW,315,20.4,29.3,55,0.00,,OVC029,0.00,VWS V14.01,2013-02-19 21:20:00,
2013-02-19 15:25:00,26.4,13.2,30.09,NW,315,20.0,22.6,57,0.00,,OVC029,0.00,VWS V14.01,2013-02-19 21:25:00,
2013-02-19 15:30:00,26.4,13.2,30.06,WNW,292,23.0,26.0,57,0.00,,OVC029,0.00,VWS V14.01,2013-02-19 21:30:00,
2013-02-19 15:35:00,26.4,12.9,30.06,WNW,292,24.2,33.2,56,0.00,,OVC029,0.00,VWS V14.01,2013-02-19 21:35:00,
2013-02-19 15:40:00,26.4,13.2,30.06,NW,315,19.6,26.5,57,0.00,,OVC029,0.00,VWS V14.01,2013-02-19 21:40:00,
2013-02-19 15:45:00,26.2,12.7,30.06,NW,315,14.5,26.0,56,0.00,,OVC029,0.00,VWS V14.01,2013-02-19 21:45:00,
2013-02-19 15:50:00,26.4,12.9,30.06,NW,315,23.8,26.9,56,0.00,,OVC029,0.00,VWS V14.01,2013-02-19 21:50:00,
2013-02-19 15:55:00,26.4,12.9,30.06,NW,315,23.0,26.5,56,0.00,,OVC029,0.00,VWS V14.01,2013-02-19 21:55:00,
2013-02-19 16:00:00,26.4,12.9,30.09,NW,315,24.2,31.3,56,0.00,,OVC029,0.00,VWS V14.01,2013-02-19 22:00:00,
2013-02-19 16:05:00,26.4,12.4,30.09,WNW,292,20.4,27.4,55,0.00,,OVC034,0.00,VWS V14.01,2013-02-19 22:05:00,
2013-02-19 16:10:00,26.4,12.0,30.09,NW,315,20.0,26.9,54,0.00,,OVC034,0.00,VWS V14.01,2013-02-19 22:10:00,
2013-02-19 16:15:00,26.4,11.6,30.06,WNW,292,23.8,26.9,53,0.00,,OVC034,0.00,VWS V14.01,2013-02-19 22:15:00,
2013-02-19 16:20:00,26.4,12.0,30.06,NW,315,23.8,31.3,54,0.00,,OVC034,0.00,VWS V14.01,2013-02-19 22:20:00,
2013-02-19 16:25:00,26.6,12.6,30.06,WNW,292,23.4,26.5,55,0.00,,OVC034,0.00,VWS V14.01,2013-02-19 22:25:00,
2013-02-19 16:30:00,26.6,12.6,30.09,NW,315,23.8,26.9,55,0.00,,OVC034,0.00,VWS V14.01,2013-02-19 22:30:00,
2013-02-19 16:35:00,26.6,13.4,30.09,WNW,292,20.4,23.1,57,0.00,,OVC034,0.00,VWS V14.01,2013-02-19 22:35:00,
2013-02-19 16:40:00,26.6,13.0,30.09,NW,315,20.0,23.1,56,0.00,,OVC034,0.00,VWS V14.01,2013-02-19 22:40:00,
2013-02-19 16:45:00,26.6,13.8,30.09,WNW,292,18.7,23.1,58,0.00,,OVC034,0.00,VWS V14.01,2013-02-19 22:45:00,
2013-02-19 16:50:00,26.4,12.0,30.09,NW,315,24.7,27.9,54,0.00,,OVC034,0.00,VWS V14.01,2013-02-19 22:50:00,
2013-02-19 16:55:00,26.4,12.0,30.09,WNW,292,19.6,23.6,54,0.00,,OVC034,0.00,VWS V14.01,2013-02-19 22:55:00,
2013-02-19 17:00:00,26.4,12.0,30.09,NW,315,25.1,28.4,54,0.00,,OVC036,0.00,VWS V14.01,2013-02-19 23:00:00,
2013-02-19 17:05:00,26.4,12.0,30.09,WNW,292,23.4,27.9,54,0.00,,OVC036,0.00,VWS V14.01,2013-02-19 23:05:00,
2013-02-19 17:10:00,26.2,11.9,30.09,WNW,292,20.0,24.1,54,0.00,,OVC036,0.00,VWS V14.01,2013-02-19 23:10:00,
2013-02-19 17:15:00,26.2,11.4,30.09,WNW,292,24.7,27.9,53,0.00,,OVC036,0.00,VWS V14.01,2013-02-19 23:15:00,
2013-02-19 17:20:00,26.0,11.3,30.09,WNW,292,26.4,29.8,53,0.00,,OVC036,0.00,VWS V14.01,2013-02-19 23:20:00,
2013-02-19 17:25:00,26.0,11.3,30.09,WNW,292,26.4,29.8,53,0.00,,OVC036,0.00,VWS V14.01,2013-02-19 23:25:00,
2013-02-19 17:30:00,26.0,11.7,30.12,NW,315,19.1,26.5,54,0.00,,OVC036,0.00,VWS V14.01,2013-02-19 23:30:00,
2013-02-19 17:35:00,26.0,11.7,30.12,NW,315,19.1,21.6,54,0.00,,OVC036,0.00,VWS V14.01,2013-02-19 23:35:00,
2013-02-19 17:41:00,26.0,11.7,30.12,WNW,292,18.7,22.1,54,0.00,,OVC036,0.00,VWS V14.01,2013-02-19 23:41:00,
2013-02-19 17:46:00,25.9,12.4,30.12,WNW,292,16.6,21.2,56,0.00,,OVC036,0.00,VWS V14.01,2013-02-19 23:46:00,
2013-02-19 17:51:00,25.7,11.8,30.12,NW,315,17.4,21.2,55,0.00,,OVC036,0.00,VWS V14.01,2013-02-19 23:51:00,
2013-02-19 17:56:00,25.7,11.8,30.12,NW,315,20.8,23.6,55,0.00,,OVC036,0.00,VWS V14.01,2013-02-19 23:56:00,
2013-02-19 18:01:00,25.5,12.0,30.12,NW,315,20.0,22.6,56,0.00,,OVC036,0.00,VWS V14.01,2013-02-20 00:01:00,
2013-02-19 18:06:00,25.7,11.4,30.12,NW,315,19.6,22.6,54,0.00,,OVC036,0.00,VWS V14.01,2013-02-20 00:06:00,
2013-02-19 18:11:00,25.5,11.2,30.12,NW,315,17.4,19.7,54,0.00,,OVC036,0.00,VWS V14.01,2013-02-20 00:11:00,
2013-02-19 18:16:00,25.5,12.0,30.15,NW,315,16.6,19.7,56,0.00,,OVC036,0.00,VWS V14.01,2013-02-20 00:16:00,
2013-02-19 18:21:00,25.3,11.8,30.15,NW,315,12.3,17.3,56,0.00,,OVC036,0.00,VWS V14.01,2013-02-20 00:21:00,
2013-02-19 18:26:00,25.1,12.5,30.15,WNW,292,12.3,16.8,58,0.00,,OVC036,0.00,VWS V14.01,2013-02-20 00:26:00,
2013-02-19 18:31:00,25.1,12.5,30.15,WNW,292,12.3,14.0,58,0.00,,OVC036,0.00,VWS V14.01,2013-02-20 00:31:00,
2013-02-19 18:36:00,25.0,11.5,30.15,WNW,292,16.2,18.3,56,0.00,,OVC036,0.00,VWS V14.01,2013-02-20 00:36:00,
2013-02-19 18:41:00,25.0,11.9,30.15,WNW,292,14.9,18.3,57,0.00,,OVC036,0.00,VWS V14.01,2013-02-20 00:41:00,
2013-02-19 18:47:00,25.0,12.3,30.18,WNW,292,11.5,14.4,58,0.00,,OVC036,0.00,VWS V14.01,2013-02-20 00:47:00,
2013-02-19 18:52:00,24.8,11.7,30.18,NW,315,14.9,16.8,57,0.00,,OVC036,0.00,VWS V14.01,2013-02-20 00:52:00,
2013-02-19 18:57:00,24.8,11.7,30.18,NW,315,14.9,18.3,57,0.00,,OVC036,0.00,VWS V14.01,2013-02-20 00:57:00,
2013-02-19 19:02:00,24.8,12.1,30.18,WNW,292,14.0,16.4,58,0.00,,SCT038,0.00,VWS V14.01,2013-02-20 01:02:00,
2013-02-19 19:07:00,24.8,12.1,30.18,NW,315,12.3,14.4,58,0.00,,SCT038,0.00,VWS V14.01,2013-02-20 01:07:00,
2013-02-19 19:12:00,24.6,12.3,30.18,WNW,292,10.6,12.5,59,0.00,,SCT038,0.00,VWS V14.01,2013-02-20 01:12:00,
2013-02-19 19:17:00,24.6,12.3,30.21,NW,315,14.5,18.3,59,0.00,,SCT038,0.00,VWS V14.01,2013-02-20 01:17:00,
2013-02-19 19:22:00,24.4,12.6,30.21,WNW,292,14.5,16.4,60,0.00,,SCT038,0.00,VWS V14.01,2013-02-20 01:22:00,
2013-02-19 19:27:00,24.4,12.9,30.21,NW,315,11.9,16.8,61,0.00,,SCT038,0.00,VWS V14.01,2013-02-20 01:27:00,
2013-02-19 19:32:00,24.4,12.6,30.21,NW,315,11.1,14.0,60,0.00,,SCT038,0.00,VWS V14.01,2013-02-20 01:32:00,
2013-02-19 19:37:00,24.2,12.8,30.21,NW,315,10.6,13.0,61,0.00,,SCT038,0.00,VWS V14.01,2013-02-20 01:37:00,
2013-02-19 19:42:00,24.2,12.8,30.21,WNW,292,11.1,15.4,61,0.00,,SCT038,0.00,VWS V14.01,2013-02-20 01:42:00,
2013-02-19 19:47:00,24.1,12.9,30.21,NW,315,10.6,14.0,62,0.00,,SCT038,0.00,VWS V14.01,2013-02-20 01:47:00,
2013-02-19 19:52:00,24.1,12.9,30.21,NW,315,11.1,13.0,62,0.00,,SCT038,0.00,VWS V14.01,2013-02-20 01:52:00,
2013-02-19 19:57:00,24.1,12.9,30.21,NW,315,11.5,13.5,62,0.00,,SCT038,0.00,VWS V14.01,2013-02-20 01:57:00,
2013-02-19 20:02:00,23.9,12.4,30.18,NW,315,15.3,22.6,61,0.00,,CLR,0.00,VWS V14.01,2013-02-20 02:02:00,
2013-02-19 20:07:00,23.9,12.8,30.18,WNW,292,14.5,18.3,62,0.00,,CLR,0.00,VWS V14.01,2013-02-20 02:07:00,
2013-02-19 20:12:00,24.1,12.6,30.18,NW,315,14.0,16.4,61,0.00,,CLR,0.00,VWS V14.01,2013-02-20 02:12:00,
2013-02-19 20:18:00,24.1,12.6,30.21,NW,315,15.3,17.3,61,0.00,,CLR,0.00,VWS V14.01,2013-02-20 02:18:00,
2013-02-19 20:23:00,23.9,12.8,30.21,WNW,292,16.6,18.8,62,0.00,,CLR,0.00,VWS V14.01,2013-02-20 02:23:00,
2013-02-19 20:28:00,24.1,11.4,30.21,NNW,338,16.2,18.3,58,0.00,,CLR,0.00,VWS V14.01,2013-02-20 02:28:00,
2013-02-19 20:33:00,24.1,10.7,30.21,NW,315,18.7,21.2,56,0.00,,CLR,0.00,VWS V14.01,2013-02-20 02:33:00,
2013-02-19 20:38:00,24.1,10.3,30.21,NNW,338,15.3,26.5,55,0.00,,CLR,0.00,VWS V14.01,2013-02-20 02:38:00,
2013-02-19 20:43:00,23.9,10.1,30.21,NW,315,16.6,21.2,55,0.00,,CLR,0.00,VWS V14.01,2013-02-20 02:43:00,
2013-02-19 20:48:00,23.7,10.3,30.21,WNW,292,15.3,21.2,56,0.00,,CLR,0.00,VWS V14.01,2013-02-20 02:48:00,
2013-02-19 20:53:00,23.7,10.3,30.21,NW,315,18.7,23.6,56,0.00,,CLR,0.00,VWS V14.01,2013-02-20 02:53:00,
2013-02-19 20:58:00,23.4,10.0,30.21,WNW,292,16.2,18.3,56,0.00,,CLR,0.00,VWS V14.01,2013-02-20 02:58:00,
2013-02-19 21:04:00,23.4,10.0,30.21,WNW,292,18.7,21.2,56,0.00,,CLR,0.00,VWS V14.01,2013-02-20 03:04:00,
2013-02-19 21:09:00,23.4,10.0,30.21,NW,315,19.6,22.1,56,0.00,,CLR,0.00,VWS V14.01,2013-02-20 03:09:00,
2013-02-19 21:14:00,23.2,9.8,30.21,WNW,292,20.4,23.1,56,0.00,,CLR,0.00,VWS V14.01,2013-02-20 03:14:00,
2013-02-19 21:19:00,23.2,9.8,30.24,WNW,292,19.6,22.1,56,0.00,,CLR,0.00,VWS V14.01,2013-02-20 03:19:00,
2013-02-19 21:24:00,23.0,8.8,30.24,WNW,292,23.8,26.9,54,0.00,,CLR,0.00,VWS V14.01,2013-02-20 03:24:00,
2013-02-19 21:29:00,23.0,8.8,30.24,NW,315,17.9,20.2,54,0.00,,CLR,0.00,VWS V14.01,2013-02-20 03:29:00,
2013-02-19 21:34:00,22.8,9.1,30.24,NW,315,16.2,23.1,55,0.00,,CLR,0.00,VWS V14.01,2013-02-20 03:34:00,
2013-02-19 21:39:00,22.6,9.3,30.24,WNW,292,14.9,16.8,56,0.00,,CLR,0.00,VWS V14.01,2013-02-20 03:39:00,
2013-02-19 21:44:00,22.6,9.3,30.24,WNW,292,14.9,16.8,56,0.00,,CLR,0.00,VWS V14.01,2013-02-20 03:44:00,
2013-02-19 21:49:00,22.5,9.5,30.24,NNW,338,11.9,14.0,57,0.00,,CLR,0.00,VWS V14.01,2013-02-20 03:49:00,
2013-02-19 21:54:00,22.5,9.5,30.24,NNW,338,11.5,13.5,57,0.00,,CLR,0.00,VWS V14.01,2013-02-20 03:54:00,
2013-02-19 21:59:00,22.1,10.0,30.27,WNW,292,11.9,14.0,59,0.00,,CLR,0.00,VWS V14.01,2013-02-20 03:59:00,
2013-02-19 22:05:00,22.1,10.0,30.27,NW,315,15.3,17.3,59,0.00,,CLR,0.00,VWS V14.01,2013-02-20 04:05:00,
2013-02-19 22:10:00,22.1,10.0,30.27,NW,315,14.5,16.8,59,0.00,,CLR,0.00,VWS V14.01,2013-02-20 04:10:00,
2013-02-19 22:15:00,22.1,10.0,30.24,NW,315,11.1,18.8,59,0.00,,CLR,0.00,VWS V14.01,2013-02-20 04:15:00,
2013-02-19 22:20:00,22.1,10.0,30.24,NNW,338,16.2,18.3,59,0.00,,CLR,0.00,VWS V14.01,2013-02-20 04:20:00,
2013-02-19 22:25:00,22.1,10.0,30.24,NW,315,14.9,18.3,59,0.00,,CLR,0.00,VWS V14.01,2013-02-20 04:25:00,
2013-02-19 22:30:00,22.1,10.0,30.27,NW,315,14.5,16.4,59,0.00,,CLR,0.00,VWS V14.01,2013-02-20 04:30:00,
2013-02-19 22:35:00,22.1,10.0,30.27,NNW,338,11.5,13.0,59,0.00,,CLR,0.00,VWS V14.01,2013-02-20 04:35:00,
2013-02-19 22:40:00,22.1,10.0,30.27,NW,315,11.9,15.9,59,0.00,,CLR,0.00,VWS V14.01,2013-02-20 04:40:00,
2013-02-19 22:45:00,22.1,10.0,30.27,NNW,338,11.5,15.9,59,0.00,,CLR,0.00,VWS V14.01,2013-02-20 04:45:00,
2013-02-19 22:50:00,22.1,10.0,30.27,NNW,338,11.5,16.8,59,0.00,,CLR,0.00,VWS V14.01,2013-02-20 04:50:00,
2013-02-19 22:55:00,22.1,10.0,30.27,NW,315,18.7,21.2,59,0.00,,CLR,0.00,VWS V14.01,2013-02-20 04:55:00,
2013-02-19 23:00:00,22.1,10.0,30.27,NW,315,14.0,15.9,59,0.00,,CLR,0.00,VWS V14.01,2013-02-20 05:00:00,
2013-02-19 23:05:00,22.1,10.0,30.27,WNW,292,12.8,17.3,59,0.00,,CLR,0.00,VWS V14.01,2013-02-20 05:05:00,
2013-02-19 23:10:00,22.1,10.0,30.27,NNW,338,14.0,18.8,59,0.00,,CLR,0.00,VWS V14.01,2013-02-20 05:10:00,
2013-02-19 23:15:00,22.1,10.0,30.27,NW,315,14.9,16.8,59,0.00,,CLR,0.00,VWS V14.01,2013-02-20 05:15:00,
2013-02-19 23:20:00,22.1,10.0,30.27,WNW,292,14.0,16.4,59,0.00,,CLR,0.00,VWS V14.01,2013-02-20 05:20:00,
2013-02-19 23:25:00,22.1,10.0,30.27,NW,315,11.9,15.9,59,0.00,,CLR,0.00,VWS V14.01,2013-02-20 05:25:00,
2013-02-19 23:30:00,22.1,10.0,30.27,NW,315,13.6,18.8,59,0.00,,CLR,0.00,VWS V14.01,2013-02-20 05:30:00,
2013-02-19 23:35:00,22.1,10.0,30.27,NW,315,14.0,15.9,59,0.00,,CLR,0.00,VWS V14.01,2013-02-20 05:35:00,
2013-02-19 23:41:00,22.1,10.0,30.27,WNW,292,11.1,13.0,59,0.00,,CLR,0.00,VWS V14.01,2013-02-20 05:41:00,
2013-02-19 23:46:00,22.1,10.0,30.27,NW,315,12.8,15.9,59,0.00,,CLR,0.00,VWS V14.01,2013-02-20 05:46:00,
2013-02-19 23:51:00,22.1,10.0,30.27,NW,315,12.3,14.0,59,0.00,,CLR,0.00,VWS V14.01,2013-02-20 05:51:00,
2013-02-19 23:56:00,22.1,10.0,30.27,NNW,338,16.2,19.7,59,0.00,,CLR,0.00,VWS V14.01,2013-02-20 05:56:00,